Regional Weather Roundup
Issued by NWS

Home | Current Version | Previous Version | Text Only | Print | Product List | Glossary On
Versions: 1 2 3 4 5 6 7 8 9 10 11 12 13 14 15 16 17 18 19 20 21 22 23 24 25 26 27 28 29 30 31 32 33 34 35 36 37 38 39 40 41 42 43 44 45 46 47 48 49 50
000
ASUS43 KDMX 280007
RWRIA

WEATHER ROUNDUP FOR IOWA
NATIONAL WEATHER SERVICE DES MOINES IA
700 PM CDT MON JUL 27 2015

NOTE: "FAIR" INDICATES FEW OR NO CLOUDS BELOW 12,000 FEET WITH NO
SIGNIFICANT WEATHER AND/OR OBSTRUCTIONS TO VISIBILITY.

* - THESE STATIONS ARE NOT NWS STATIONS...THUS NOT UNDER NWS
QUALITY CONTROL.  THEY ALSO DO NOT REPORT WEATHER SUCH
AS PRECIPITATION OR FOG.

IAZ001>003-012>014-020>022-031>034-043>046-280100-
   NORTHWEST IOWA

CITY           SKY/WX    TMP DP  RH WIND       PRES   REMARKS
CARROLL *      SUNNY     75  70  83 SE17      29.88F
CHEROKEE *     SUNNY     81  73  76 S13       29.84F HX  86
DENISON *      SUNNY     77  70  78 SE17G26   29.86S
LE MARS *      SUNNY     84  77  79 S15       29.82F HX  94
ORANGE CITY *  SUNNY     82  73  74 S12       29.83F HX  88
SHELDON *      SUNNY     82  73  74 S12G21    29.83S HX  88
SIOUX CITY     MOSUNNY   85  75  72 SE16G23   29.81F HX  93
6HR MIN TEMP:  83; 6HR MAX TEMP:  86;

SPENCER        SUNNY     84  72  67 S13       29.86S HX  89
6HR MIN TEMP:  76; 6HR MAX TEMP:  87;

STORM LAKE *   SUNNY     79  70  73 S13G23    29.88S HX  81
$$

IAZ055>058-069>071-079>083-090>094-280100-
   SOUTHWEST IOWA

CITY           SKY/WX    TMP DP  RH WIND       PRES   REMARKS
ATLANTIC *     PTSUNNY   77  70  78 SE10G18   29.89F
AUDUBON *      MOSUNNY   75  70  83 SE8G18    29.91F
CLARINDA *     MOSUNNY   79  72  78 SE10G24   29.90F HX  82
COUNCIL BLFS * CLOUDY    81  73  78 SE15G25   29.87S HX  85
CRESTON *      MOSUNNY   77  72  83 E16G22    29.92F
HARLAN  *      PTSUNNY   77  75  94 SE17G25   29.91S
LAMONI         SUNNY     79  72  79 E10       29.93S HX  82
6HR MIN TEMP:  75; 6HR MAX TEMP:  92;

RED OAK *      PTSUNNY   79  70  73 E15       29.88F HX  81
SHENANDOAH *   PTSUNNY   81  73  78 E15G22    29.87S HX  85
$$

IAZ047>049-059>061-072>074-084-280100-
   CENTRAL IOWA

CITY           SKY/WX    TMP DP  RH WIND       PRES   REMARKS
AMES           PTSUNNY   76  66  71 SE13G21   29.87F
6HR MIN TEMP:  69; 6HR MAX TEMP:  76; 6HR PCP:  1.08;

ANKENY *       SUNNY     77  70  78 MISG      29.89F
CHARITON *     SUNNY     75  70  83 SE7G15    29.92F
DES MOINES     PTSUNNY   77  69  76 SE10      29.90F
6HR MIN TEMP:  71; 6HR MAX TEMP:  77; 6HR PCP:  1.10;

GRINNELL*      CLOUDY    72  70  94 SE8       29.92F
KNOXVILLE *    MOSUNNY   73  68  83 E9        29.90S
MARSHALLTOWN   CLOUDY    73  70  90 E13       29.91F
6HR MIN TEMP:  70; 6HR MAX TEMP:  79; 6HR PCP:  0.24;

PELLA *        CLOUDY    71  71 100 E5        29.91F
PERRY *          N/A     77  68  73 SE12      29.89F
$$

IAZ004>006-015-016-023>025-035-036-280100-
   NORTH CENTRAL IOWA

CITY           SKY/WX    TMP DP  RH WIND       PRES   REMARKS
ALGONA *       SUNNY     79  70  73 SE12G20   29.90R HX  81
CLARION *      SUNNY     75  68  78 SE12      29.91S
ESTHERVILLE    SUNNY     80  69  69 SE12      29.87S HX  83
6HR MIN TEMP:  74; 6HR MAX TEMP:  82;

FORT DODGE *   MOSUNNY   77  68  73 SE10      29.91R
MASON CITY     PTSUNNY   75  71  87 SE14      29.93R
6HR MIN TEMP:  75; 6HR MAX TEMP:  78;

FOREST CITY *  SUNNY     79  66  65 SE12      29.92R HX  81
IOWA FALLS *     N/A     74  67  79 E8        29.92F
$$

IAZ007>011-017>019-026>030-037>042-050>054-066-280100-
   NORTHEAST IOWA

CITY           SKY/WX    TMP DP  RH WIND       PRES   REMARKS
CEDAR RAPIDS   CLOUDY    79  76  90 SE5       29.94F HX  83
6HR MIN TEMP:  79; 6HR MAX TEMP:  83; 6HR PCP: TRACE;

CHARLES CITY * SUNNY     79  75  89 SE9       29.94S HX  82
CLINTON *      CLOUDY    82  72  69 SE5       29.98F HX  87
DECORAH *      SUNNY     79  72  78 SE7       29.95F HX  82
DUBUQUE        CLOUDY    82  72  71 S6        29.97F HX  87
6HR MIN TEMP:  81; 6HR MAX TEMP:  84;

MONTICELLO *   SUNNY     81  75  83 SE6       29.95F HX  86
OELWEIN *      SUNNY     79  73  83 SE7G14    29.95S HX  82
WATERLOO       CLOUDY    81  73  76 SE15G22   29.91S HX  86
6HR MIN TEMP:  80; 6HR MAX TEMP:  83;

$$

IAZ064-065-067-068-078-280100-
   EAST CENTRAL IOWA

CITY           SKY/WX    TMP DP  RH WIND       PRES   REMARKS
DAVENPORT      CLOUDY    81  72  74 E6        29.97S HX  85
6HR MIN TEMP:  81; 6HR MAX TEMP:  86;

IOWA CITY      CLOUDY    80  75  84 SE6       29.96S HX  85
6HR MIN TEMP:  80; 6HR MAX TEMP:  86; 6HR PCP:  0.01;

MT. PLEASANT * RAIN      80  75  86 CALM      29.98S HX  84
MUSCATINE *    SUNNY     81  73  78 S5        29.96R HX  85
QUAD CITIES    CLOUDY    83  73  72 CALM      29.96R HX  89
6HR MIN TEMP:  83; 6HR MAX TEMP:  87;

$$

IAZ062-063-075>077-085>089-095>099-280100-
   SOUTHEAST IOWA

CITY           SKY/WX    TMP DP  RH WIND       PRES   REMARKS
BURLINGTON     CLOUDY    81  75  82 CALM      29.97R HX  87
6HR MIN TEMP:  81; 6HR MAX TEMP:  88;

FAIRFIELD *    RAIN      73  72  94 CALM      29.97F
FORT MADISON * MOSUNNY   77  77 100 N5        29.99R
KEOKUK *       CLOUDY    79  75  89 W8        29.97R HX  82
OSKALOOSA *    RAIN      71  70  96 CALM      29.93F
CENTERVILLE *    N/A     73  72  94 E8        29.95S
OTTUMWA        LGT RAIN  72  71  97 E10       29.91F
6HR MIN TEMP:  70; 6HR MAX TEMP:  87; 6HR PCP:  0.50;

WASHINGTON *   LGT RAIN  77  77 100 S8        29.98F
$$

ABBREVIATIONS USED IN REMARKS
   TC - TEMPERATURES IN CELSIUS
  WCI - WIND CHILL INDEX
   HX - HEAT INDEX
  VSB - VISIBILITY
$$




USA.gov is the U.S. government's official web portal to all federal, state and local government web resources and services.